< Cyclone 202123 2022 Season Cyclone 202207 >
Cyclone 202202 (Paddy)
General InformationTrack Information on Google MapsList of All Images || ResourceGoogle EarthGE AnimationAtom FeedGeoJSON
Detalied Best Track (Time Zone = UTC)
Year Month Day Hour Lat. Long. Pressure (hPa) Wind (kt) Class Image Chart
2021 11 19 06 -9.9 103.5 1008 20 2 Image --
2021 11 19 12 -10.2 104.0 1007 20 2 Image --
2021 11 19 18 -10.3 104.3 1008 20 2 Image --
2021 11 20 00 -10.3 104.6 1006 20 2 Image --
2021 11 20 06 -10.3 105.1 1005 20 2 Image --
2021 11 20 12 -10.6 105.7 1006 25 2 Image --
2021 11 20 18 -11.1 105.9 1007 25 2 Image --
2021 11 21 00 -11.5 106.0 1004 25 2 Image --
2021 11 21 06 -11.6 106.4 1005 25 2 Image --
2021 11 21 12 -11.8 107.2 1003 30 2 Image --
2021 11 21 18 -12.4 107.6 1000 30 2 Image --
2021 11 22 00 -12.8 108.0 996 40 3 Image --
2021 11 22 06 -13.2 108.0 996 40 3 Image --
2021 11 22 12 -13.3 107.9 995 40 3 Image --
2021 11 22 18 -13.4 107.7 995 40 3 Image --
2021 11 23 00 -13.5 107.5 995 40 3 Image --
2021 11 23 06 -13.7 107.2 995 40 3 Image --
2021 11 23 12 -13.7 107.1 999 35 3 Image --
2021 11 23 18 -13.8 106.9 998 35 3 Image --
2021 11 24 00 -13.9 106.5 1000 35 3 Image --
2021 11 24 06 -14.1 105.9 1001 30 2 Image --
2021 11 24 12 -14.0 105.4 1002 30 2 Image --
2021 11 24 18 -14.1 104.9 1004 30 2 Image --
2021 11 25 00 -14.2 104.4 1005 30 2 Image --
2021 11 25 06 -14.3 103.7 1005 25 2 Image --
< Cyclone 202123 2022 Season Cyclone 202207 >

Help